Home > Weather > New Salem > Past weeks

Flag for USA Weather for the Past 2 Weeks in New Salem, North Dakota, USA

Now
56 °F

Passing clouds.


Feels Like: 52 °F
Forecast: 37 / 58 °F
Wind: 14 mph from East

Location: Bismarck Municipal Airport

Current Time: Apr 30, 2016 at 12:22:33 PM

Latest Report: Apr 30, 2016 at 11:52 AM


Visibility: 10 mi

Pressure: 30.23 "Hg (27.93 "Hg at 664m altitude)

Humidity: 46%

Dew Point: 35 °F

Location of New SalemLocation

Historic Weather in New Salem — Graph

°F

New Salem Temperature Yesterday

Maximum temperature yesterday: 62 °F (at 5:52 PM)
Minimum temperature yesterday: 35 °F (at 6:52 AM)
Average temperature yesterday: 49 °F

High & Low Weather Summary for the Past Weeks

 TemperatureHumidityPressure
High72 °F (Apr 23, 1:52 PM)100% (Apr 18, 4:52 PM)30.44 "Hg (Apr 18, 4:52 PM)
Low30 °F (Apr 22, 6:52 AM)25% (Apr 22, 3:52 PM)29.56 "Hg (Apr 24, 2:02 PM)
Average46 °F77%30.04 "Hg
* Reported Apr 15 11:01 AM — Apr 30 10:52 AM, New Salem, Weather by CustomWeather, © 2016

Note: Actual official high and low records may vary slightly from our data, if they occured in-between our weather recording intervals... More about our weather records

Advertising

New Salem Weather History for the Previous 24 Hours

Scroll right to see more
 ConditionsComfort  
Time TempWeatherWind HumidityBarometerVisibility
10:52 AM
Sat, Apr 30
52 °FSunny.16 mph55%30.23 "Hg10 mi
9:52 AM49 °FSunny.15 mph64%30.22 "Hg10 mi
8:52 AM47 °FSunny.14 mph66%30.21 "Hg10 mi
7:52 AM43 °FSunny.15 mph71%30.19 "Hg10 mi
6:52 AM40 °FClear.12 mph73%30.19 "Hg10 mi
5:52 AM39 °FClear.10 mph76%30.18 "Hg10 mi
4:52 AM38 °FClear.10 mph79%30.17 "Hg10 mi
3:52 AM39 °FClear.6 mph76%30.16 "Hg10 mi
2:52 AM40 °FClear.9 mph77%30.16 "Hg10 mi
1:52 AM42 °FClear.12 mph71%30.16 "Hg10 mi
12:52 AM42 °FClear.9 mph73%30.15 "Hg10 mi
11:52 PM
Fri, Apr 29
45 °FPassing clouds.6 mph65%30.15 "Hg10 mi
10:52 PM46 °FClear.7 mph66%30.14 "Hg10 mi
9:52 PM48 °FClear.9 mph61%30.15 "Hg10 mi
8:52 PM53 °FPassing clouds.8 mph51%30.12 "Hg10 mi
7:52 PM58 °FSunny.10 mph39%30.12 "Hg10 mi
6:52 PM60 °FPassing clouds.12 mph36%30.12 "Hg10 mi
5:52 PM62 °FScattered clouds.17 mph34%30.11 "Hg10 mi
4:52 PM60 °FPassing clouds.15 mph36%30.13 "Hg10 mi
3:52 PM61 °FSunny.16 mph36%30.13 "Hg10 mi
2:52 PM60 °FPassing clouds.14 mph38%30.15 "Hg10 mi
1:52 PM58 °FSunny.15 mph36%30.14 "Hg10 mi
12:52 PM57 °FSunny.14 mph37%30.15 "Hg10 mi
Weather by CustomWeather, © 2016

See weather overviewHow to use our weather pages